Regional Weather Roundup
Issued by NWS

Home | Current Version | Previous Version | Graphics & Text | Print | Product List | Glossary On
Versions: 1 2 3 4 5 6 7 8 9 10 11 12 13 14 15 16 17 18 19 20 21 22 23 24 25 26 27 28 29 30 31 32 33 34 35 36 37 38 39 40 41 42 43 44 45 46 47 48 49 50
740
ASUS45 KBOU 100910
RWRCO

WEATHER ROUNDUP FOR COLORADO
NATIONAL WEATHER SERVICE DENVER/BOULDER CO
200 AM MST SUN DEC 10 2017

NOTE: "FAIR" INDICATES FEW OR NO CLOUDS BELOW 12000 FEET WITH NO
SIGNIFICANT WEATHER AND/OR OBSTRUCTIONS TO VISIBILITY.

COZ001>005-013-030-031-101000-
...NORTHWEST COLORADO...

CITY           SKY/WX    TMP DP  RH WIND       PRES   REMARKS
CRAIG          FAIR       6   2  83 CALM      30.59S
HAYDEN         FAIR      18   9  68 E10       30.59S WCI   6
MEEKER         FAIR      13   4  67 NE6       30.58S WCI   4
RABBIT EARS PA FAIR      21   9  58 W9        30.57S WCI  11
STEAMBOAT SPGS FAIR      15  11  82 CALM      30.58S
WALDEN         FAIR       7  -2  66 SE12      30.56S WCI  -9
$$

COZ006>008-011-101000-
...WEST CENTRAL VALLEYS...

CITY           SKY/WX    TMP DP  RH WIND       PRES   REMARKS
GRAND JUNCTION FAIR      19   5  54 E5        30.57R WCI  12
MONTROSE       FAIR      15   1  53 S8        30.60S WCI   4
EAGLE          FAIR       8   5  87 NE3       30.67S
RIFLE          FAIR      15   5  64 CALM      30.61S
DELTA          FAIR      20   2  45 NE6       30.60R WCI  12
NUCLA          FAIR      21  -6  30 E9        30.59S WCI  11
$$

COZ017>023-064>068-101000-
...SOUTHWEST COLORADO...

CITY           SKY/WX    TMP DP  RH WIND       PRES   REMARKS
DURANGO        FAIR      15   0  51 CALM      30.51S
CORTEZ         FAIR      10  -4  53 CALM      30.52R
PAGOSA SPRINGS FAIR      16   1  53 CALM      30.52R
TELLURIDE      FAIR      25 -11  20 SE6       30.59R WCI  18
WOLF CREEK PAS FAIR      25 -24  11 N8        30.63F WCI  16
$$

COZ009-010-012-014-032>034-037-058>063-101000-
...CENTRAL COLORADO...

CITY           SKY/WX    TMP DP  RH WIND       PRES   REMARKS
ASPEN          FAIR      16   2  54 S6        30.56F WCI   7
BUENA VISTA    FAIR      27  -2  28 NW8       30.52S WCI  18
COPPER MTN     NOT AVBL
BERTHOUD PASS  FAIR      14   3  62 NW21      30.56F WCI  -4
COTTONWOOD PAS FAIR      34 -18  10 W10       30.53S WCI  26
GUNNISON       FAIR       5  -1  76 CALM      30.62R
KREMMLING      HAZE       3   0  85 CALM      30.67R VSB 1/4
LEADVILLE      FAIR      10  -7  46 NE12      30.55S WCI  -5
MONARCH PASS   FAIR      27 -22  11 W12       30.68F WCI  16
SALIDA         FAIR      22  -1  36 W6        30.61R WCI  14
SUNLIGHT       FAIR      23  -9  23 NW7       30.63S WCI  15
WILKERSON PASS FAIR      28 -18  12 N10G16    30.56S WCI  19
$$

COZ069>075-101000-
...SAN LUIS VALLEY/SANGRE DE CRISTO MOUNTAINS...

CITY           SKY/WX    TMP DP  RH WIND       PRES   REMARKS
ALAMOSA        FAIR       8  -1  66 SW5       30.53S WCI   0
DEL NORTE      FAIR      25 -11  20 W14       30.53S WCI  13
LA VETA PASS   FAIR      27  -4  26 SW16G24     N/A  WCI  14
SAGUACHE       FAIR      30  -8  19 NW14      30.53R WCI  20
$$

COZ035-036-038>040-101000-
...NORTHERN COLORADO FRONT RANGE...

CITY           SKY/WX    TMP DP  RH WIND       PRES   REMARKS
DENVER INTL AP FAIR      35  -2  20 SW14      30.39F WCI  26
DMNS CITY PARK NOT AVBL
AURORA         CLEAR     35  -2  20 S6        30.41S WCI  30
FRONT RANGE AP FAIR      40  -4  15 SW12      30.40F
ERIE MUNI ARPT FAIR      21   9  60 S5        30.44F WCI  15
BOULDER MUN AP FAIR      41   0  17 SW3       30.38F
CENTENNIAL     FAIR      28   0  29 SE5       30.41F WCI  23
BROOMFIELD     FAIR      37   0  20 SW5       30.40F
FORT COLLINS   FAIR      26   8  46 CALM      30.39S
LONGMONT       FAIR      28   9  45 W6        30.41S WCI  22
$$

COZ041-046-047-076>085-087-088-101000-
...PIKES PEAK/PALMER DIVIDE AND SOUTHERN FOOTHILLS...

CITY           SKY/WX    TMP DP  RH WIND       PRES   REMARKS
COLO. SPRINGS  FAIR      31  -3  23 N5        30.44S WCI  26
A. F. ACADEMY  FAIR      20  -4  34 N13       30.44S WCI   7
SCHRIEVER AFB  FAIR      36  -8  15 NW3       30.44S
CHEYENNE MTN   FAIR      38  -8  14 W5        30.39S
ELLICOTT         N/A    N/A N/A N/A CALM      30.42F
FALCON         FAIR      32  -8  17 N6        30.45S WCI  27
FORT CARSON    FAIR      30  -2  24 NW13      30.42S WCI  20
LIMON          FAIR      26   1  34 N5        30.41S WCI  20
MONUMENT HILL  FAIR      25   0  33 SW8       30.46S WCI  16
CANON CITY     FAIR      37   0  20 W16       30.42F
WALSENBURG     FAIR      34   0  23 SW10      30.45S WCI  26
TRINIDAD       FAIR      27   5  39 W14       30.45S WCI  16
$$

COZ042>045-048>051-090-091-101000-
...NORTHEAST COLORADO...

CITY           SKY/WX    TMP DP  RH WIND       PRES   REMARKS
GREELEY ARPT   FAIR      20   8  60 CALM      30.40S
AKRON          FAIR      31   2  29 W13       30.37R WCI  21
BURLINGTON     FAIR      29   6  38 W9        30.35S WCI  20
WRAY           FAIR      36   5  27 W12       30.33R
YUMA           FAIR      30   5  34 W12       30.35R WCI  21
STERLING       FAIR      30   7  37 CALM      30.34S
HOLYOKE        FAIR      36   9  32 W12       30.30S
FORT MORGAN    FAIR      26   4  38 W14       30.39R WCI  15
$$

COZ086-089-092>099-101000-
...SOUTHEAST COLORADO...

CITY           SKY/WX    TMP DP  RH WIND       PRES   REMARKS
PUEBLO         FAIR      21   2  43 W6        30.42F WCI  13
LA JUNTA       FAIR      27   4  37 SW5       30.42R WCI  22
LAMAR          FAIR      25   5  42 SW8       30.39R WCI  16
SPRINGFIELD      N/A     24   4  42 NW10      30.39R WCI  14
$$




USA.gov is the U.S. government's official web portal to all federal, state and local government web resources and services.